EZY2811 EGKK-EGPH

Flight info

Callsign EZY2811
Flight time N/A
Altitude 36000
Route LAM1Z LAM L10 BPK UN601 RIBEL DCT INPIP INPIP1E
Aircraft A320/M-SDE3FGHIRWY/LB1

Departure

Time N/A
Airport London Gatwick Airport (EGKK)

Arrival

Time 2026-05-05 11:14
Airport Edinburgh Airport (EGPH)
Time Latitude Longitude Altitude Speed Heading
2026-05-05 10:24 51.99155 -0.37448 25064 ft 424 kts 339°
2026-05-05 10:25 52.01948 -0.39030 25489 ft 427 kts 339°
2026-05-05 10:25 52.04768 -0.40630 25916 ft 430 kts 338°
2026-05-05 10:25 52.07591 -0.42272 26323 ft 432 kts 335°
2026-05-05 10:25 52.10282 -0.44459 26717 ft 432 kts 326°
2026-05-05 10:26 52.12872 -0.46957 27119 ft 434 kts 326°
2026-05-05 10:26 52.15475 -0.49476 27533 ft 437 kts 326°
2026-05-05 10:26 52.18093 -0.52018 27931 ft 439 kts 325°
2026-05-05 10:26 52.20724 -0.54584 28331 ft 442 kts 325°
2026-05-05 10:27 52.23364 -0.57163 28714 ft 444 kts 325°
2026-05-05 10:27 52.25991 -0.59730 29071 ft 446 kts 325°
2026-05-05 10:27 52.28692 -0.62365 29459 ft 448 kts 325°
2026-05-05 10:27 52.31381 -0.64987 29869 ft 449 kts 325°
2026-05-05 10:28 52.34026 -0.67567 30212 ft 451 kts 325°
2026-05-05 10:28 52.36724 -0.70204 30501 ft 452 kts 326°
2026-05-05 10:28 52.39432 -0.72858 30767 ft 454 kts 326°
2026-05-05 10:28 52.42146 -0.75525 31020 ft 456 kts 326°
2026-05-05 10:29 52.44874 -0.78212 31294 ft 458 kts 326°
2026-05-05 10:29 52.47603 -0.80903 31659 ft 457 kts 326°
2026-05-05 10:29 52.50328 -0.83595 32007 ft 456 kts 326°
2026-05-05 10:29 52.53047 -0.86284 32357 ft 456 kts 327°
2026-05-05 10:30 52.55757 -0.88964 32727 ft 455 kts 328°
2026-05-05 10:30 52.58463 -0.91646 33095 ft 454 kts 328°
2026-05-05 10:30 52.61163 -0.94323 33458 ft 453 kts 328°
2026-05-05 10:30 52.63866 -0.97002 33805 ft 453 kts 328°
2026-05-05 10:31 52.66562 -0.99680 34143 ft 452 kts 328°
2026-05-05 10:31 52.69253 -1.02357 34412 ft 453 kts 328°
2026-05-05 10:31 52.71950 -1.05052 34661 ft 454 kts 328°
2026-05-05 10:31 52.74647 -1.07752 34944 ft 453 kts 328°
2026-05-05 10:32 52.77344 -1.10455 35263 ft 452 kts 329°
2026-05-05 10:32 52.80030 -1.13152 35607 ft 450 kts 328°
2026-05-05 10:32 52.82708 -1.15840 35896 ft 450 kts 328°
2026-05-05 10:32 52.85347 -1.18493 36012 ft 449 kts 328°
2026-05-05 10:33 52.90705 -1.23890 36030 ft 446 kts 328°
2026-05-05 10:33 52.95964 -1.29200 36027 ft 446 kts 328°
2026-05-05 10:34 53.01257 -1.34566 36026 ft 446 kts 328°
2026-05-05 10:34 53.06542 -1.39944 36027 ft 444 kts 328°
2026-05-05 10:35 53.11813 -1.45316 36027 ft 444 kts 328°
2026-05-05 10:35 53.17084 -1.50691 36019 ft 444 kts 327°
2026-05-05 10:36 53.22349 -1.56097 36024 ft 444 kts 327°
2026-05-05 10:36 53.27610 -1.61517 36039 ft 444 kts 327°
2026-05-05 10:37 53.32864 -1.66936 36049 ft 443 kts 327°
2026-05-05 10:37 53.38104 -1.72361 36046 ft 442 kts 327°
2026-05-05 10:38 53.43335 -1.77795 36048 ft 442 kts 327°
2026-05-05 10:38 53.48562 -1.83230 36048 ft 442 kts 327°
2026-05-05 10:39 53.53786 -1.88664 36049 ft 442 kts 327°
2026-05-05 10:39 53.59014 -1.94130 36049 ft 442 kts 327°
2026-05-05 10:40 53.64229 -1.99595 36047 ft 442 kts 327°
2026-05-05 10:40 53.69436 -2.05090 36050 ft 442 kts 327°
2026-05-05 10:41 53.74623 -2.10382 36059 ft 442 kts 333°
2026-05-05 10:41 53.80280 -2.14326 36064 ft 442 kts 336°
2026-05-05 10:42 53.88835 -2.20183 36061 ft 442 kts 336°
2026-05-05 10:43 53.94536 -2.24087 36054 ft 442 kts 336°
2026-05-05 10:43 54.00241 -2.27995 36065 ft 441 kts 336°
2026-05-05 10:44 54.05931 -2.31923 36057 ft 441 kts 336°
2026-05-05 10:44 54.11610 -2.35867 36053 ft 440 kts 336°
2026-05-05 10:45 54.17284 -2.39804 36051 ft 440 kts 336°
2026-05-05 10:45 54.22952 -2.43734 36063 ft 440 kts 335°
2026-05-05 10:46 54.28620 -2.47681 36061 ft 439 kts 335°
2026-05-05 10:46 54.34269 -2.51642 36054 ft 439 kts 335°
2026-05-05 10:47 54.39880 -2.55587 36032 ft 438 kts 335°
2026-05-05 10:47 54.42704 -2.57576 35806 ft 438 kts 335°
2026-05-05 10:47 54.45530 -2.59567 35035 ft 441 kts 335°
2026-05-05 10:47 54.48377 -2.61578 34227 ft 443 kts 334°
2026-05-05 10:48 54.51239 -2.63607 33317 ft 445 kts 334°
2026-05-05 10:48 54.54080 -2.65620 32816 ft 438 kts 334°
2026-05-05 10:48 54.56880 -2.67603 32236 ft 433 kts 334°
2026-05-05 10:48 54.59652 -2.69566 31664 ft 429 kts 334°
2026-05-05 10:49 54.62397 -2.71514 31107 ft 425 kts 334°
2026-05-05 10:49 54.65122 -2.73452 30548 ft 421 kts 334°
2026-05-05 10:49 54.67822 -2.75373 29989 ft 418 kts 334°
2026-05-05 10:49 54.70498 -2.77281 29410 ft 414 kts 334°
2026-05-05 10:50 54.73152 -2.79177 28889 ft 409 kts 334°
2026-05-05 10:50 54.75775 -2.81050 28340 ft 405 kts 334°
2026-05-05 10:50 54.78361 -2.82902 27824 ft 401 kts 334°
2026-05-05 10:50 54.80933 -2.84747 27317 ft 397 kts 334°
2026-05-05 10:51 54.83473 -2.86575 26821 ft 393 kts 334°
2026-05-05 10:51 54.85953 -2.88364 26346 ft 390 kts 334°
2026-05-05 10:51 54.88447 -2.90163 25858 ft 387 kts 334°
2026-05-05 10:51 54.90928 -2.91955 25305 ft 386 kts 334°
2026-05-05 10:52 54.93409 -2.93751 24762 ft 385 kts 334°
2026-05-05 10:52 54.95878 -2.95542 24227 ft 384 kts 334°
2026-05-05 10:52 54.98342 -2.97327 23703 ft 383 kts 334°
2026-05-05 10:52 55.00817 -2.99121 23083 ft 383 kts 334°
2026-05-05 10:53 55.03263 -3.00895 22563 ft 380 kts 334°
2026-05-05 10:53 55.05659 -3.02638 22035 ft 377 kts 334°
2026-05-05 10:53 55.08076 -3.04401 21511 ft 375 kts 334°
2026-05-05 10:53 55.10481 -3.06158 20985 ft 373 kts 334°
2026-05-05 10:54 55.12868 -3.07901 20467 ft 372 kts 334°
2026-05-05 10:54 55.15254 -3.09648 19950 ft 370 kts 334°
2026-05-05 10:54 55.17644 -3.11407 19155 ft 376 kts 334°
2026-05-05 10:54 55.20042 -3.13168 18800 ft 370 kts 334°
2026-05-05 10:55 55.22408 -3.14902 18341 ft 367 kts 334°
2026-05-05 10:55 55.24759 -3.16627 17844 ft 365 kts 334°
2026-05-05 10:55 55.27068 -3.18321 17626 ft 354 kts 334°
2026-05-05 10:55 55.29354 -3.19728 17487 ft 345 kts 345°
2026-05-05 10:56 55.31717 -3.20115 17357 ft 338 kts 359°
2026-05-05 10:56 55.34025 -3.19786 17207 ft 329 kts
2026-05-05 10:56 55.36293 -3.19432 16900 ft 325 kts
2026-05-05 10:56 55.38531 -3.19080 16545 ft 322 kts
2026-05-05 10:57 55.40758 -3.18728 16186 ft 320 kts
2026-05-05 10:57 55.42959 -3.18380 15931 ft 314 kts
2026-05-05 10:57 55.45102 -3.18036 15803 ft 305 kts
2026-05-05 10:57 55.47187 -3.17701 15676 ft 297 kts
2026-05-05 10:58 55.49217 -3.17379 15570 ft 289 kts
2026-05-05 10:58 55.51198 -3.17068 15441 ft 281 kts
2026-05-05 10:58 55.53081 -3.16771 15140 ft 271 kts
2026-05-05 10:58 55.54956 -3.16476 14827 ft 269 kts
2026-05-05 10:59 55.56815 -3.16185 14578 ft 267 kts
2026-05-05 10:59 55.58662 -3.15898 14301 ft 266 kts
2026-05-05 10:59 55.60503 -3.15611 14060 ft 265 kts
2026-05-05 10:59 55.62335 -3.15324 13817 ft 263 kts
2026-05-05 11:00 55.64158 -3.15037 13527 ft 262 kts
2026-05-05 11:00 55.65968 -3.14838 13224 ft 257 kts 351°
2026-05-05 11:00 55.67659 -3.15617 12837 ft 252 kts 329°
2026-05-05 11:00 55.69020 -3.17550 12370 ft 252 kts 306°
2026-05-05 11:01 55.69821 -3.20285 12002 ft 252 kts 284°
2026-05-05 11:01 55.69947 -3.23362 11666 ft 253 kts 263°
2026-05-05 11:01 55.69479 -3.26371 11294 ft 255 kts 254°
2026-05-05 11:01 55.68935 -3.29357 10940 ft 255 kts 254°
2026-05-05 11:02 55.68389 -3.32342 10621 ft 254 kts 254°
2026-05-05 11:02 55.67845 -3.35309 10296 ft 253 kts 254°
2026-05-05 11:02 55.67302 -3.38271 9940 ft 253 kts 254°
2026-05-05 11:02 55.66760 -3.41244 9548 ft 253 kts 254°
2026-05-05 11:03 55.66218 -3.44212 9158 ft 253 kts 254°
2026-05-05 11:03 55.65683 -3.47132 8794 ft 252 kts 254°
2026-05-05 11:03 55.65136 -3.50115 8416 ft 251 kts 254°
2026-05-05 11:03 55.64808 -3.53084 8044 ft 247 kts 271°
2026-05-05 11:04 55.65078 -3.56042 7662 ft 243 kts 292°
2026-05-05 11:04 55.65914 -3.58604 7291 ft 239 kts 313°
2026-05-05 11:04 55.67081 -3.60592 7176 ft 227 kts 318°
2026-05-05 11:04 55.68225 -3.62443 6966 ft 220 kts 319°
2026-05-05 11:05 55.69355 -3.64248 6670 ft 217 kts 320°
2026-05-05 11:05 55.70507 -3.65962 6349 ft 215 kts 322°
2026-05-05 11:05 55.71665 -3.67633 5986 ft 215 kts 322°
2026-05-05 11:05 55.72831 -3.69302 5638 ft 215 kts 322°
2026-05-05 11:06 55.73991 -3.70968 5277 ft 215 kts 323°
2026-05-05 11:06 55.75159 -3.72649 5021 ft 214 kts 323°
2026-05-05 11:06 55.75894 -3.73775 4923 ft 209 kts 320°
2026-05-05 11:06 55.76923 -3.75536 4779 ft 202 kts 319°
2026-05-05 11:07 55.78050 -3.76876 4624 ft 192 kts 340°
2026-05-05 11:07 55.79330 -3.77350 4388 ft 187 kts
2026-05-05 11:07 55.80590 -3.76953 4128 ft 184 kts 22°
2026-05-05 11:07 55.81672 -3.75760 3986 ft 185 kts 43°
2026-05-05 11:08 55.82450 -3.73947 3993 ft 186 kts 58°
2026-05-05 11:08 55.83124 -3.71988 3991 ft 185 kts 57°
2026-05-05 11:08 55.83796 -3.70038 4026 ft 179 kts 57°
2026-05-05 11:08 55.84419 -3.68229 3947 ft 166 kts 57°
2026-05-05 11:09 55.85005 -3.66521 3768 ft 158 kts 57°
2026-05-05 11:09 55.85555 -3.64921 3579 ft 147 kts 57°
2026-05-05 11:09 55.86081 -3.63388 3383 ft 140 kts 57°
2026-05-05 11:09 55.86581 -3.61930 3207 ft 138 kts 57°
2026-05-05 11:10 55.87071 -3.60502 3027 ft 136 kts 57°
2026-05-05 11:10 55.87560 -3.59072 2849 ft 135 kts 57°
2026-05-05 11:10 55.88047 -3.57650 2661 ft 134 kts 57°
2026-05-05 11:10 55.88532 -3.56234 2473 ft 134 kts 57°
2026-05-05 11:11 55.89019 -3.54810 2302 ft 134 kts 57°
2026-05-05 11:11 55.89497 -3.53409 2117 ft 131 kts 57°
2026-05-05 11:11 55.89968 -3.52031 1929 ft 129 kts 56°
2026-05-05 11:11 55.90436 -3.50660 1748 ft 131 kts 57°
2026-05-05 11:12 55.90906 -3.49281 1567 ft 130 kts 57°
2026-05-05 11:12 55.91377 -3.47901 1378 ft 130 kts 58°
2026-05-05 11:12 55.91844 -3.46528 1195 ft 129 kts 57°
2026-05-05 11:12 55.92309 -3.45165 1024 ft 128 kts 58°
2026-05-05 11:13 55.92774 -3.43798 831 ft 129 kts 58°
2026-05-05 11:13 55.93237 -3.42434 659 ft 129 kts 60°
2026-05-05 11:13 55.93699 -3.41074 439 ft 127 kts 60°
2026-05-05 11:13 55.94159 -3.39727 287 ft 127 kts 59°
2026-05-05 11:14 55.94615 -3.38385 135 ft 126 kts 60°
2026-05-05 11:14 55.95003 -3.37235 106 ft 85 kts 59°
2026-05-05 11:14 55.95223 -3.36587 105 ft 37 kts 58°
2026-05-05 11:14 55.95230 -3.36389 102 ft 11 kts 146°
2026-05-05 11:15 55.95176 -3.36333 103 ft 7 kts 149°
2026-05-05 11:15 55.95173 -3.36330 103 ft 0 kts 148°
2026-05-05 11:15 55.95171 -3.36328 103 ft 3 kts 147°
2026-05-05 11:15 55.95144 -3.36255 104 ft 8 kts 110°
2026-05-05 11:16 55.95121 -3.36144 104 ft 11 kts 110°
2026-05-05 11:16 55.95096 -3.36011 104 ft 12 kts 108°
2026-05-05 11:16 55.95059 -3.35874 106 ft 13 kts 119°
2026-05-05 11:16 55.94992 -3.35847 107 ft 8 kts 200°
2026-05-05 11:17 55.94945 -3.35853 107 ft 1 kts 163°
2026-05-05 11:17 55.94943 -3.35851 107 ft 0 kts 161°
2026-05-05 11:17 55.94932 -3.35834 107 ft 9 kts 137°
2026-05-05 11:17 55.94881 -3.35839 107 ft 4 kts 208°
2026-05-05 11:18 55.94874 -3.35847 107 ft 0 kts 209°